Regional Weather Roundup
Issued by NWS

Home | Current Version | Previous Version | Graphics & Text | Print | Product List | Glossary On
Versions: 1 2 3 4 5 6 7 8 9 10 11 12 13 14 15 16 17 18 19 20 21 22 23 24 25 26 27 28 29 30 31 32 33 34 35 36 37 38 39 40 41 42 43 44 45 46 47 48 49 50
000
ASUS43 KOAX 230910
RWRNE

WEATHER ROUNDUP FOR NEBRASKA
NATIONAL WEATHER SERVICE OMAHA NE
400 AM CDT MON OCT 23 2017

NOTES: SATELLITE DATA IS BEING USED TO AUGMENT CLOUD COVER ABOVE
       12000 FEET.
       "FAIR" INDICATES FEW OR NO CLOUDS BELOW 12,000 FEET WITH NO
       SIGNIFICANT WEATHER AND/OR OBSTRUCTIONS TO VISIBILITY.


NEZ001>004-019>022-054>056-231000-
NEBRASKA PANHANDLE

CITY           SKY/WX    TMP DP  RH WIND       PRES   REMARKS
SCOTTSBLUFF    CLOUDY    48  34  58 N28G45    30.19R
ALLIANCE       CLOUDY    47  36  65 N30G48    30.18R
CHADRON        CLOUDY    45  37  73 SW12      30.17F
GORDON         LGT RAIN  46  40  81 NW14G20   30.17R
KIMBALL        CLOUDY    53  32  44 N23G29    30.19R
SIDNEY         CLOUDY    51  33  50 N21G26    30.16R
$$

NEZ057>060-069>072-079>082-231000-
SOUTHWEST NEBRASKA

CITY           SKY/WX    TMP DP  RH WIND       PRES   REMARKS
NORTH PLATTE   CLEAR     43  37  79 NW8       30.04R
IMPERIAL       CLEAR     55  34  45 NW14      30.06R
LEXINGTON      CLEAR     50  37  60 NW14      29.99R
MCCOOK         CLEAR     46  32  58 W10       30.00S
OGALLALA       CLEAR     57  34  41 N16G29    30.09R
$$

NEZ005>010-023>029-035>040-094-231000-
NORTH CENTRAL NEBRASKA

CITY           SKY/WX    TMP DP  RH WIND       PRES   REMARKS
VALENTINE      CLOUDY    57  37  47 NW18G33   30.05R
AINSWORTH      CLOUDY    55  41  61 NW16      30.03R
BROKEN BOW     CLEAR     55  36  48 N16       29.98R
O`NEILL        CLOUDY    56  40  55 NW17G24   29.96R
ORD            CLOUDY    57  37  47 NW17      29.95R
THEDFORD       CLOUDY    55  39  56 NW15      30.07R
$$

NEZ041-046>049-061>064-073>077-083>087-231000-
SOUTH CENTRAL NEBRASKA

CITY           SKY/WX    TMP DP  RH WIND       PRES   REMARKS
GRAND ISLAND   CLEAR     48  33  56 W9        29.91R
AURORA         CLEAR     46  32  58 W8        29.89S
HASTINGS       CLEAR     43  32  65 W8        29.92S
HEBRON         CLEAR     51  31  46 SW6       29.90F
HOLDREGE       CLEAR     50  32  50 W10       29.94R
KEARNEY        CLEAR     47  32  56 NW10      29.96R
YORK           PTCLDY    45  32  61 SW6       29.88S
$$

NEZ011>018-030>034-042>045-231000-
NORTHEAST NEBRASKA

CITY           SKY/WX    TMP DP  RH WIND       PRES   REMARKS
NORFOLK        CLOUDY    50  33  52 W7        29.87R
ALBION         CLOUDY    57  37  45 NW18      29.90R
BLAIR          CLEAR     50  33  53 S10       29.85F
COLUMBUS       PTCLDY    50  32  50 SW9       29.88R
FREMONT        PTCLDY    52  32  46 S5        29.86S
TEKAMAH        PTCLDY    46  35  65 SE7       29.85F
WAYNE          CLOUDY    48  33  56 CALM      29.85R
$$

NEZ050>053-065>068-078-088>093-231000-
SOUTHEAST NEBRASKA

CITY           SKY/WX    TMP DP  RH WIND       PRES   REMARKS
LINCOLN        PTCLDY    53  31  42 SW9       29.88F
OMAHA EPPLEY   PTCLDY    46  36  68 SE9       29.87F
BEATRICE       CLEAR     44  34  67 SE5       29.90F
FALLS CITY     CLEAR     47  36  65 S7        29.92F
NEBRASKA CITY  PTCLDY    47  35  63 S10       29.89F
PLATTSMOUTH    PTCLDY    49  34  58 S8        29.88F
$$

NEZ044-045-051>053-067-231000-
OMAHA AREA

CITY           SKY/WX    TMP DP  RH WIND       PRES   REMARKS
OMAHA EPPLEY   PTCLDY    46  36  68 SE9       29.87F
BLAIR          CLEAR     50  33  53 S10       29.85F
FREMONT        PTCLDY    52  32  46 S5        29.86S
MILLARD        CLOUDY    48  36  63 SE5       29.87F
OFFUTT AFB     CLOUDY    40  35  82 E7        29.87F
PLATTSMOUTH    PTCLDY    49  34  58 S8        29.88F
WAHOO          FAIR      45  34  65 SE6       29.85F
$$




USA.gov is the U.S. government's official web portal to all federal, state and local government web resources and services.